sat.trackr.live / text

‹ back to catalog

ONEWEB-0384

NORAD 49310 · 2021-090AH

PAYLOAD ACTIVE UNKNOWN

§ Identity

Operator
Country
UK
Launch date
2021-10-14
Launch site
VOSTO
Launch vehicle
Mass (kg)
RCS (m²)

Purposes: comms

External: N2YO · Heavens-Above · Gunter

§ Orbital elements

Epoch: 2026-09-19T23:28:58.994112Z

Period
109.02 min
Inclination
87.9144°
Eccentricity
0.0002505
Mean motion
13.20818286 rev/d
Perigee alt
1,179.7 km
Apogee alt
1,183.5 km
Semi-major
7,559.7 km
B*
-1.8802e-6
RAAN
255.5672°
Arg perigee
90.4703°
Mean anomaly
269.6717°
Rev number
24,234

§ Raw data

ONEWEB-03841 49310U 21090AH  26262.97846058  .00000012  00000+0 -18802-5 0  99912 49310  87.9144 255.5672 0002505  90.4703 269.6717 13.20818286242341

JSON: /api/v1/satellites/49310 · /tle

For live sub-satellite position, see the globe view (requires WebGL).

§ Visibility from observer

Set your observer location to see the next 7 days of passes ≥ 10°. The values pass through the URL so the page stays shareable.

No JS? Fill the form by hand. The geolocation button needs JavaScript.